Regional Weather Roundup
Issued by NWS

Home | Current Version | Previous Version | Text Only | Print | Product List | Glossary On
Versions: 1 2 3 4 5 6 7 8 9 10 11 12 13 14 15 16 17 18 19 20 21 22 23 24 25 26 27 28 29 30 31 32 33 34 35 36 37 38 39 40 41 42 43 44 45 46 47 48 49 50
000
ASUS42 KTBW 240717
RWRFL
FLORIDA REGIONAL WEATHER ROUNDUP
NATIONAL WEATHER SERVICE TAMPA BAY RUSKIN FL
300 AM EDT SUN JUL 24 2016

NOTE: "FAIR" INDICATES FEW OR NO CLOUDS BELOW 12,000 FEET WITH NO
SIGNIFICANT WEATHER AND/OR OBSTRUCTIONS TO VISIBILITY.

FLZ001>010-012>015-112-114-115-240800-
PANHANDLE FLORIDA

CITY           SKY/WX    TMP DP  RH WIND       PRES   REMARKS
PENSACOLA      PTCLDY    80  74  81 CALM      29.98F
PENSACOLA NAS  PTCLDY    78  74  87 CALM      29.97F
MILTON NAS     MOCLDY    75  74  96 CALM      29.99
CRESTVIEW      PTCLDY    74  72  93 CALM      30.00F
DUKE FIELD     FAIR      75  73  93 CALM      29.98F
VALPARAISO     MOCLDY    78  73  84 NW2       29.98F
MARY ESTHER    PTCLDY    76  74  93 N2        29.97F
TRI COUNTY     FAIR      79  72  79 CALM      30.00F
PANAMA CITY    FAIR      78  76  93 CALM      29.98F
TYNDALL AFB    MOCLDY    79  76  90 E3        29.98F
APALACHICOLA   PTCLDY    81  77  88 CALM      29.99F

STATION/POSITION SKY/WX   TEMP    WIND        PRES    WAVE   SWELL
                          AIR SEA DIR/SP/G            HT/PER HT/PER
                          (F)     (DEG/KT/KT) (MB)    (FT/S) (FT/S)
30.1N   87.6W              84 89  210/  2/  4 1015.3F   1
29.2N   88.2W              84 88  210/  4/  8 1015.1F
28.8N   86.0W              84 88  180/  2/  4 1016.1    1/ 5
PANAMA CITY BEAC           84 88  110/  5/  6 1016.1F
TOWER C                    83     120/  7/  8 1016.0F
28.5N   84.5W              84 88  210/  8/ 10 1015.7F   2/ 4   2/ 4

$$
FLZ011-016>038-118-127-128-134-139-239-240800-
NORTH FLORIDA

CITY           SKY/WX    TMP DP  RH WIND       PRES   REMARKS
MARIANNA       PTCLDY    76  74  93 CALM      29.99F
TALLAHASSEE    PTCLDY    78  75  90 CALM        N/A
PERRY          CLOUDY    77  75  92 CALM      30.01F
LIVE OAK         N/A     75  75 100 CALM      30.03F
CROSS CITY       N/A     77  73  87 E3        30.00F
LAKE CITY      FAIR      72  68  88 CALM      30.02F
GAINESVILLE    PTCLDY    73  69  87 CALM      30.03F
WILLISTON      FAIR      75  72  88 CALM      30.03F
PALATKA        FAIR      72  72 100 CALM      30.03F
MAYPORT NAS    CLEAR     78  73  84 S7        30.02F
JACKSONVILLE   PTCLDY    76  73  91 SW3       30.01F
JAX NAS        PTCLDY    82  73  74 S7        30.03F
JAX CECIL      MOCLDY    73  73 100 CALM      30.02F
FERNANDINA BEA FAIR      82  75  78 S6        30.00F
ST AUGUSTINE   CLEAR     77  72  84 SW3       30.03F
PALM COAST     FAIR      74  73  97 CALM      30.03F

STATION/POSITION SKY/WX   TEMP    WIND        PRES    WAVE   SWELL
                          AIR SEA DIR/SP/G            HT/PER HT/PER
                          (F)     (DEG/KT/KT) (MB)    (FT/S) (FT/S)
SHELL POINT                81     310/  2/  3 1015.1
KEATON BEACH               78      60/  2/  3 1015.3F
CEDAR KEY                  82      30/  6/  8 1017.0F
FERNANDINA                 83 89  170/  5/ 11 1016.8F
30.7N   81.3W                 86                N/A     3/ 4
MAYPORT                    81 87  200/  5/  7 1017.2F
31.4N   80.9W              85 86  190/ 12/ 14 1016.2F   3/ 4   2/ 9
ST AUGUSTINE               78 86  230/  3/  5 1017.8F

$$
FLZ040-043>046-052-053-057-058-063-144-240800-
INTERIOR CENTRAL FLORIDA

CITY           SKY/WX    TMP DP  RH WIND       PRES   REMARKS
OCALA          CLEAR     73  68  83 CALM      30.02F
THE VILLAGES     N/A     73  73 100 CALM      29.93F
LEESBURG       CLEAR     78  72  81 S6        30.04F
SANFORD        CLEAR     77  71  82 CALM      30.03F
ORLANDO EXEC   CLEAR     77  74  90 SW3       30.03F
ORLANDO INTL   PTCLDY    77  73  87 CALM      30.03F
KISSIMMEE      CLEAR     78  74  87 CALM      30.04F
WINTER HAVEN   CLEAR     79  73  82 CALM      30.04F
LAKELAND       CLEAR     77  73  88 CALM      30.03F
BARTOW         FAIR      73  73 100 CALM      30.04F
OKEECHOBEE     CLEAR     72  72 100 CALM      30.04S

$$
FLZ041-047-054-059-064-141-147-240800-
EAST CENTRAL FLORIDA

CITY           SKY/WX    TMP DP  RH WIND       PRES   REMARKS
DAYTONA BEACH  PTCLDY    75  72  90 CALM      30.03F
JFK SPACE CTR  CLEAR     75  72  89 CALM      30.02F
CAPE CANAVERAL PTCLDY    78  73  84 W5        30.01F
PATRICK AFB    CLEAR     80  74  82 S5        30.02F
MELBOURNE      CLEAR     75  72  90 W3        30.03F
VERO BEACH     PTCLDY    76  72  87 W3        30.04R
FT PIERCE      CLEAR     75  73  93 S5        30.03S
STUART         CLEAR     77  72  83 SW3       30.05S

STATION/POSITION SKY/WX   TEMP    WIND        PRES    WAVE   SWELL
                          AIR SEA DIR/SP/G            HT/PER HT/PER
                          (F)     (DEG/KT/KT) (MB)    (FT/S) (FT/S)
28.5N   80.2W              84 86  170/  8/ 10 1017.3F
28.9N   78.5W              84 87  210/  2/  4 1017.3F
TRIDENT PIER               81 88  250/  4/  5 1017.4S
28.4N   80.5W                 86                N/A     2/ 8
27.5N   80.2W                 86                N/A     1/ 8

$$
FLZ050-056-061-142-242-148-248-149-249-151-251-155-255-
160-260-240800-
WEST CENTRAL FLORIDA

CITY           SKY/WX    TMP DP  RH WIND       PRES   REMARKS
CRYSTAL RIVER  FAIR      75  72  88 CALM      30.02F
INVERNESS      FAIR      73  72  94 CALM      30.03F
BROOKSVILLE    CLEAR     74  73  97 CALM      30.03F
ZEPHYRHILLS    FAIR      55  55 100 CALM      30.03F
CLEARWATER AIR RAIN      73  72  94 SE3       30.04S
ST PETE CLEARW LGT RAIN  76  71  85 N3        30.03F
TAMPA INTL     MOCLDY    78  71  79 W12       30.03F
TAMPA EXEC     CLEAR     77  72  83 CALM      30.03S
PLANT CITY       N/A    N/A N/A N/A MISG        N/A
MACDILL AFB    CLOUDY    80  77  92 NW7       30.02F
PETER O KNIGHT PTCLDY    81  77  89 NW3       30.03S
ST PETERSBURG  CLOUDY    81  75  82 CALM      30.01F
SARASOTA       PTCLDY    79  73  82 SE3       30.02F
VENICE         NOT AVBL

STATION/POSITION SKY/WX   TEMP    WIND        PRES    WAVE   SWELL
                          AIR SEA DIR/SP/G            HT/PER HT/PER
                          (F)     (DEG/KT/KT) (MB)    (FT/S) (FT/S)
27.3N   84.2W                 86                N/A     2/ 4
CLEARWATER BEACH           83 88  100/  3/  6 1016.9F
MIDDLE TAMPA BAY                  150/ 10/ 11 1017.3F
VENICE                     77 87  160/ 15/ 17 1017.1R

$$
FLZ066-069-070-075>078-162-262-165-265-240800-
SOUTHWEST FLORIDA AND KEYS

CITY           SKY/WX    TMP DP  RH WIND       PRES   REMARKS
PUNTA GORDA    TSTM      73  72  96 S10       30.07F FOG
FT MYERS       CLOUDY    74  72  93 W5        30.03F
SOUTHWEST INTL LGT RAIN  74  71  91 SW7       30.04F
NAPLES         RAIN      76  76 100 NW9       30.04F FOG
MARCO ISLAND   CLOUDY   N/A N/A N/A NW7       30.03F
MARATHON       CLOUDY    81  78  91 CALM      30.01R
KEY WEST NAS   CLOUDY    82  75  79 CALM      30.01F
KEY WEST INTL  CLOUDY    82  76  81 CALM      30.01F

STATION/POSITION SKY/WX   TEMP    WIND        PRES    WAVE   SWELL
                          AIR SEA DIR/SP/G            HT/PER HT/PER
                          (F)     (DEG/KT/KT) (MB)    (FT/S) (FT/S)
NAPLES                        87              1017.5R
26.0N   85.6W              81 86  120/  8/  8 1015.9F   1/ 4
DRY TORTUGAS               83     120/  3/  4 1016.0F
SAND KEY                   82     120/  3/  4 1016.5F
LONG KEY                   83 87   60/  8/  9 1016.4F

$$
FLZ067-068-071>074-168-172>174-240800-
SOUTHEAST FLORIDA

CITY           SKY/WX    TMP DP  RH WIND       PRES   REMARKS
W PALM BEACH   PTCLDY    76  72  87 W5        30.02F
FT LAUDER-EXEC PTCLDY    77  71  82 CALM      30.02F
FT LAUDERDALE  MOCLDY    77  72  84 CALM      30.02F
POMPANO BEACH  CLEAR     77  71  82 NW5       30.02F
PEMBROKE PINES MOCLDY    77  73  87 NW3       30.04F
OPA LOCKA      CLOUDY    79  74  84 CALM      30.03F
MIAMI          CLOUDY    78  72  81 CALM      30.03F
WEST KENDALL   MOCLDY    75  73  93 CALM      30.03S
HOMESTEAD      CLOUDY    78  76  92 N3        30.02S

STATION/POSITION SKY/WX   TEMP    WIND        PRES    WAVE   SWELL
                          AIR SEA DIR/SP/G            HT/PER HT/PER
                          (F)     (DEG/KT/KT) (MB)    (FT/S) (FT/S)
PORT EVERGLADES            78     330/  4/  6 1016.9R
VIRGINIA KEY               81 88   10/  1/  2 1017.4R
LAKE WORTH                        270/  4/  5   N/A
FOWEY ROCKS                82 84  240/  5/  6 1017.1F
SETTLEMENT POINT           82     100/  3/  3 1017.1F

$$




USA.gov is the U.S. government's official web portal to all federal, state and local government web resources and services.